GSAT-19 (42747 NORAD) Tracking and Keplerian Element Data

This shows tracking and keplerian element data for the satellite.

Feedback or suggestion? Click here.




ElementValue
Catalog42747
NameGSAT-19
Epoch Orbit534
Epoch Day318.71757528
Epoch Year2018
RAAN100.6454
Inclination0.068
Eccentricity0.0001329
Argument of Perigee89.9819
Mean Anonmoly169.3983
Mean Motion1.00271721
Decay Rate1.26E-06
L11 42747U 17031A 18318.71757528 .00000126 00000-0 00000+0 0 9997
L22 42747 0.0680 100.6454 0001329 89.9819 169.3983 1.00271721 5341

Live tracking and technical data element details for GSAT-19 (NORAD 42747). GSAT-19 can be tracked NOW for your location showing map with azimuth and elevation plus other details from your city location.

Track the satellite on the map from your city or location and see movement details for azimuth, elevation, latitude, longitude, range, height, and movement on the map or in text.







IsCatalogInMostPopularTable: catalog: 42747, numindb: 142
Update: records affected: 1



GetName: 42747 GSAT-19

Hit Count: updated at: Fri, 16 Nov 2018 09:35:04 GMT